Vertical_Velocity
-5 -4 -3 -1 1 -2 -1 -2 1 4 4 1 -1 6 -2 6 -0 2 1 3 4 3
-1 2 2 -1 -3 1 -2 3 2 4 5 6 7 -0 2 -0 1 3 3 1 0 -2
-2 -5 2 3 5 4 -3 -2 1 5 6 8 6 3 1 -0 2 1 4 4 2 -5
-2 -5 -4 2 -4 -2 -4 -2 -3 4 9 -1 1 -2 0 2 4 -4 5 5 2 4
-3 -8 -1 0 3 -2 -4 -3 1 1 -2 -0 -1 -1 -4 2 2 -0 -3 5 3 1
-1 -10 -1 -1 -7 -7 -3 -1 2 11 55 14 7 -3 6 1 -1 -3 1 -0 -1 2
-5 -7 -5 -5 -1 -6 -1 -2 -5 -2 3 2 3 2 5 3 1 -1 3 2 1 6
-4 -4 -4 -3 -3 -6 -1 -3 -4 -7 -6 -3 3 -2 5 5 5 5 4 1 -0 3
-1 -3 0 -3 -4 -1 -0 1 1 -3 -1 2 2 0 1 2 1 4 3 1 0 -2
-1 1 -3 -4 1 3 4 2 1 0 1 0 0 1 2 -0 0 -2 -2 -1 1 2
-9 -4 -0 0 1 3 5 2 7 5 2 2 3 2 1 0 -1 1 2 3 2 1
1 3 -6 0 0 4 13 13 -2 2 -0 2 3 -0 -1 -3 2 3 1 -0 -1 -1
-1 3 -1 -10 -5 -5 10 1 33 31 28 16 4 5 2 3 1 2 3 -0 -3 1
-3 5 5 3 -5 -10 1 -6 -9 -2 -0 3 3 3 13 12 2 7 17 22 13 16
Height
5623 5620 5615 5609 5604 5602 5600 5600 5602 5602 5604 5609 5615 5624 5633 5643 5652 5667 5676 5685 5694 5701
5607 5602 5596 5587 5583 5580 5576 5575 5575 5577 5583 5589 5594 5603 5613 5623 5633 5643 5658 5669 5679 5687
5589 5583 5578 5570 5563 5554 5548 5543 5545 5550 5559 5568 5576 5585 5595 5604 5616 5625 5638 5652 5661 5671
5573 5568 5564 5556 5545 5530 5518 5509 5509 5521 5536 5547 5560 5572 5580 5590 5601 5610 5622 5635 5647 5656
5563 5559 5552 5546 5531 5513 5501 5492 5492 5502 5519 5534 5548 5559 5569 5577 5587 5596 5609 5620 5630 5641
5557 5548 5545 5537 5525 5510 5501 5496 5495 5502 5516 5523 5534 5548 5556 5566 5575 5586 5595 5606 5617 5627
5554 5549 5543 5533 5524 5514 5508 5505 5506 5509 5514 5524 5533 5539 5545 5554 5564 5575 5586 5596 5607 5616
5563 5553 5544 5535 5528 5521 5518 5515 5514 5516 5520 5527 5534 5539 5545 5552 5560 5570 5578 5587 5598 5607
5568 5559 5551 5542 5535 5528 5525 5523 5522 5522 5524 5528 5533 5537 5542 5550 5559 5568 5575 5584 5592 5599
5574 5565 5557 5550 5543 5537 5533 5529 5527 5527 5529 5531 5534 5537 5542 5549 5556 5563 5570 5578 5585 5592
5584 5574 5566 5558 5551 5545 5541 5537 5535 5534 5533 5534 5537 5540 5544 5548 5553 5560 5567 5574 5580 5585
5590 5583 5575 5568 5562 5555 5550 5545 5543 5539 5539 5540 5541 5543 5545 5548 5552 5559 5564 5569 5573 5578
5596 5590 5584 5579 5573 5567 5561 5555 5551 5548 5546 5545 5546 5546 5548 5550 5551 5556 5560 5565 5569 5573
5599 5594 5589 5584 5581 5578 5574 5571 5564 5558 5551 5553 5552 5553 5554 5554 5556 5559 5562 5565 5567 5570